Accueil
METAR-TAF:

METAR-TAF

Aéroports :

Grafton, Australie

latitude: 29-45-36S, longitude: 153-01-48E, altitude: 34 m

Observation

Le bulletin a été fait il y a 49 minutes, à 13:00 UTC
Vent 1 kt de sud
Température 12°C
Humidité 82%
Pression 1018 hPa
Visibilité 10 km ou plus
Nuages épars à une hauteur de 10000 ft

METAR: YGFN 211300Z AUTO 18001KT 9999 // SCT100 12/09 Q1018

Heure: 23:49 (13:49 UTC)


TAF: absent

Observations et prévisions météorologiques de plus de 4000 aéroports (messages METAR et TAF).

Les stations disponibles sont représentées par des disques jaunes et rouges sur la carte.

Passer la souris dessus pour voir le nom de la station.

Cliquer dessus pour voir les observations et prévisions météorologiques.

Pour changer de carte: cliquez sur les boutons verts avec une croix noire pour zoomer, sur le bouton vert avec un tiret pour effectuer un zoom arrière, ou sur les flèches vertes pour les cartes adjacentes.


METAR-TAF: